AirNav   Air Wisconsin Airman Trainee
 
 336 users online  

2MO4 Breckenridge Airport
Rockville, Missouri, USA

GOING TO ROCKVILLE?


FAA INFORMATION EFFECTIVE 28 FEBRUARY 2019

Location

FAA Identifier: 2MO4
Lat/Long: 38-06-52.0000N / 094-10-36.0000W
38-06.866667N / 094-10.600000W
38.1144444 / -94.1766667
(estimated)
Elevation: 805 ft. / 245 m (estimated)
Variation: 04E (1990)
From city: 6 miles NW of ROCKVILLE, MO
Time zone: UTC -6 (UTC -5 during Daylight Saving Time)
Zip code: 64724

Airport Operations

Airport use: Private use. Permission required prior to landing
Activation date: 05/1992
Control tower: no
ARTCC: KANSAS CITY CENTER
FSS: COLUMBIA FLIGHT SERVICE STATION
Attendance: UNATNDD
Wind indicator: yes
Segmented circle: no

Airport Communications

WX AWOS-3 at NVD (17 nm S): 119.175 (417-448-1635)

Nearby radio navigation aids

VOR radial/distance  VOR name  Freq  Var
BUMr116/17.5BUTLER VORTAC115.9007E

 
NDB name  Hdg/Dist  Freq  Var  ID
GOLDEN VALLEY237/27.438801EGLY --. .-.. -.--

Airport Services

Runway Information

Runway 18/36

Dimensions: 2500 x 60 ft. / 762 x 18 m
Surface: turf
RUNWAY 18  RUNWAY 36
Traffic pattern: leftright
Displaced threshold: 100 ft.no
Obstructions: 4 ft. fence, 100 ft. from runway20 ft. plines, 1420 ft. from runway

Airport Ownership and Management from official FAA records

Ownership: Privately-owned
Owner: JIM BRECKENRIDGE
RT. 3
APPLETON CITY, MO 64724
Phone 417-395-2397
Manager: JIM BRECKENRIDGE
RT. 3
APPLETON CITY, MO 64724
Phone 417-395-2397

Airport Operational Statistics

Aircraft based on the field: 1
Single engine airplanes: 1
    

Instrument Procedures

There are no published instrument procedures at 2MO4.

Some nearby airports with instrument procedures:

KBUM - Butler Memorial Airport (13 nm NW)
KNVD - Nevada Municipal Airport (17 nm S)
KGLY - Clinton Regional Airport (28 nm NE)
KLRY - Lawrence Smith Memorial Airport (31 nm N)
MO3 - Stockton Municipal Airport (32 nm SE)
 
Loc | Ops | Rwys | IFR | FBO | Links
Com | Nav | Svcs | Stats | Notes

Kansas City Aviation Department
 
Area around 2MO4 (Breckenridge Airport)
 
Road maps at: MapQuest Bing Google
 
Aerial photo
No photo
 
Sectional chart

 
Airport distance calculator
Flying to Breckenridge Airport? Find the distance to fly.

From to 2MO4

Sunrise and sunset
Times for 24-Mar-2019
 Local
(UTC-5)
 Zulu
(UTC)
Morning civil twilight06:4911:49
Sunrise07:1512:15
Sunset19:3100:31
Evening civil twilight19:5700:57

Current date and time
Zulu (UTC)  24-Mar-2019 07:02:44
Local (UTC-5)  24-Mar-2019 02:02:44
 
METAR
KGLY 
27nm NE 
240655Z AUTO 18006KT 10SM OVC055 10/08 A3003 RMK AO2
KLRY 
31nm N 
240655Z AUTO 17005KT 10SM CLR 09/07 A3003 RMK AO2
KRAW 
42nm E 
240655Z AUTO 15008KT 10SM CLR A3003 RMK AO2
KRCM 
44nm NE 
240655Z AUTO 14008KT 10SM SCT070 08/06 A3002 RMK AO2 LTG DSNT S
KSZL 
47nm NE 
240556Z 17010KT 10SM BKN050 10/08 A3000 RMK AO2A SLP165 60000 T00970081 10121 20095 401630060 57015 $
KPTS 
48nm SW 
240655Z AUTO 15008KT 10SM SCT120 10/08 A2998 RMK AO2 LTG DSNT SE T00950082
TAF
KSZL 
47nm NE 
232333Z 2323/2501 15015G25KT 8000 -SHRA SCT070 OVC100 621008 510102 QNH2994INS BECMG 2404/2405 14012KT 8000 -SHRA OVC010 540103 QNH2997INS BECMG 2411/2412 18006KT 6000 -SHRA BR OVC004 540103 QNH2993INS TEMPO 2412/2416 20015G20KT 4800 -TSRA OVC004CB BECMG 2417/2418 23010G15KT 8000 -SHRA BKN015 QNH2994INS BECMG 2421/2422 28012KT 9999 NSW BKN025 QNH2992INS TX17/2419Z TN08/2410Z
NOTAMs
Click for the latest NOTAMs
NOTAMs are issued by the DoD/FAA and will open in a separate window not controlled by AirNav.

 

 
 

Would you like to see your business listed on this page?

 If your business provides an interesting product or service to pilots, flight crews, aircraft, or users of the Breckenridge Airport, you should consider listing it here.  To start the listing process, click on the button below
 
Add a business
 

Other Pages about Breckenridge Airport

Update a link
 
Copyright © AirNav, LLC. All rights reserved. Privacy Policy  Contact